SCP
0 0 0 0 0 0 0 0 0 0 0 0 0 0 0 0 0 0 0 0 0 0 0 0 0 0 0 0 0 0 0 0 0 0 0 0 0 0 0 0 0 0 0
0 0 0 0 0 0 0 0 0 0 0 0 0 0 0 0 0 0 0 0 0 0 0 0 0 0 0 0 0 0 0 0 0 0 0 0 0 0 0 0 0 0 0
0 0 0 0 0 0 0 0 0 0 0 0 0 0 0 0 0 0 0 0 0 0 0 0 0 0 0 0 0 0 0 0 0 0 0 0 0 0 0 0 0 0 0
0 0 0 0 0 0 0 0 0 0 0 0 0 0 0 0 0 0 0 0 0 0 0 0 0 0 0 0 0 0 0 0 0 0 0 0 0 0 0 0 0 0 0
0 0 0 0 0 0 0 0 0 0 0 0 0 0 0 0 0 0 0 0 0 0 0 0 0 0 0 0 0 0 0 0 0 0 0 0 0 0 0 0 0 0 0
0 0 0 0 0 0 0 0 0 0 0 0 0 0 0 0 0 0 0 0 0 0 0 0 0 0 0 0 0 0 0 0 0 0 0 0 0 0 0 0 0 0 0
0 0 0 0 0 0 0 0 0 0 0 0 0 0 0 0 0 0 0 0 0 0 0 0 0 0 0 0 0 0 0 0 0 0 0 0 0 0 0 0 0 0 0
0 0 0 0 0 0 0 0 0 -0 0 0 0 0 0 0 0 0 0 0 0 0 0 0 0 0 0 0 0 0 0 0 0 0 0 0 0 0 0 0 0 0 0
0 0 0 0 0 0 0 0 0 -0 -0 0 0 0 0 0 0 0 0 0 0 0 0 0 0 0 0 0 0 0 0 0 0 0 0 0 0 0 0 0 0 0 0
0 0 0 0 0 0 0 0 0 0 0 0 0 0 0 0 0 0 0 0 0 0 0 0 0 0 0 0 0 0 0 0 0 0 0 0 0 0 0 0 0 0 0
0 0 0 0 0 0 0 0 0 0 0 0 0 0 0 0 0 0 0 0 0 0 0 0 0 0 0 0 0 0 0 0 0 0 0 0 0 0 0 0 0 0 0
0 0 0 0 0 0 0 0 0 0 0 0 0 0 0 0 0 0 0 0 0 0 0 0 0 0 0 0 0 0 0 0 0 0 0 0 0 0 0 0 0 0 0
0 0 0 0 0 0 0 0 0 0 0 0 0 0 0 0 0 0 0 0 0 0 0 0 0 0 0 0 0 0 0 0 0 0 0 0 0 0 0 0 0 0 0
0 0 0 0 0 0 0 0 0 0 0 0 0 0 0 0 0 0 0 0 0 0 0 0 0 0 0 0 0 0 0 0 0 0 0 0 0 0 0 0 0 0 0
0 0 0 0 0 0 0 0 0 0 0 0 0 0 0 0 0 0 0 0 0 0 0 0 0 0 0 0 0 0 0 0 0 0 0 0 0 0 0 0 0 0 0
0 0 0 0 0 0 0 0 0 0 0 0 0 0 0 0 0 0 0 0 0 0 0 0 0 0 0 0 0 0 0 0 0 0 0 0 0 0 0 0 0 0 0
0 0 0 0 0 0 0 0 0 0 0 0 0 0 0 0 0 0 0 0 0 0 0 0 0 0 0 0 0 0 0 0 0 0 0 0 0 0 0 0 0 0 0
0 0 0 0 0 0 0 0 0 0 0 0 0 0 0 0 0 0 0 0 0 0 0 0 0 0 0 0 0 0 0 0 0 0 0 0 0 0 0 0 0 0 0
0 0 0 0 0 0 0 0 0 0 0 0 0 0 0 0 0 0 0 0 0 0 0 0 0 0 0 0 0 0 0 0 0 0 0 0 0 0 0 0 0 0 0
0 0 0 0 0 0 0 0 0 0 0 0 0 0 0 0 0 0 0 0 0 0 0 0 0 0 0 0 0 0 0 0 0 0 0 0 0 0 0 0 0 0 0
0 0 0 0 0 0 0 0 0 0 0 0 0 0 0 0 0 0 0 0 0 0 0 0 0 0 0 0 0 0 0 0 0 0 0 0 0 0 0 0 0 0 0
0 0 0 0 0 0 0 0 0 0 0 0 0 0 0 0 0 0 0 0 0 0 0 0 0 0 0 0 0 0 0 0 0 0 0 0 0 0 0 0 0 0 0
0 0 0 0 0 0 0 0 0 0 0 0 0 0 0 0 0 0 0 0 0 0 0 0 0 0 0 0 0 0 0 0 0 0 0 0 0 0 0 0 0 0 0
0 0 0 0 0 0 0 0 0 0 0 0 0 0 0 0 0 0 0 0 0 0 0 0 0 0 0 0 0 0 0 0 0 0 0 0 0 0 0 0 0 0 0
0 0 0 0 0 0 0 0 0 0 0 0 0 0 0 0 0 0 0 0 0 0 0 0 0 0 0 0 0 0 0 0 0 0 0 0 0 0 0 0 0 0 0
0 0 0 0 0 0 0 0 0 0 0 0 0 0 0 0 0 0 0 0 0 0 0 0 0 0 0 0 0 0 0 0 0 0 0 0 0 0 0 0 0 0 0
Wind_Speed
13 13 13 12 11 11 11 10 9 9 9 9 9 10 9 9 8 8 7 7 7 6 5 4 3 2 1 1 0 0 1 2 3 4 3 4 6 8 9 8 8 8 8
12 12 12 11 11 11 11 10 9 10 9 9 9 9 9 8 8 7 7 7 6 5 5 4 4 2 2 1 1 2 2 3 4 5 5 5 7 8 9 10 9 8 8
11 11 11 11 11 10 10 9 9 9 9 8 8 8 7 7 7 6 6 6 5 5 4 4 4 3 3 2 2 2 2 3 3 4 6 5 5 6 8 8 9 8 9
10 10 10 9 9 9 8 8 8 7 7 7 7 6 6 6 6 6 5 5 5 5 4 4 4 4 4 4 3 3 3 3 4 5 6 6 6 7 6 7 8 8 8
9 9 8 8 8 7 7 7 7 7 6 5 5 5 5 4 4 5 4 5 5 6 6 6 6 6 6 4 3 3 3 4 5 6 7 7 7 7 7 5 8 9 10
8 8 7 7 7 7 6 6 6 5 5 4 4 4 4 4 6 7 5 4 5 5 6 7 7 6 8 9 9 9 8 7 8 7 7 8 10 9 8 7 8 8 6
7 6 6 6 6 5 5 5 5 4 3 3 3 3 3 4 6 7 8 4 5 5 6 6 6 6 7 6 9 12 12 13 12 8 9 10 10 9 8 9 8 8 9
5 5 4 5 5 4 4 4 3 2 2 2 2 3 3 4 7 6 7 5 5 6 6 6 6 7 7 8 9 10 10 10 10 7 8 10 10 10 8 8 8 8 8
4 3 3 3 3 3 3 2 2 2 2 2 2 3 3 4 7 7 6 4 5 7 7 7 7 8 10 11 9 9 10 9 8 9 10 11 12 12 9 5 5 6 7
2 2 2 2 2 2 1 1 2 1 2 2 3 3 3 3 6 7 7 4 5 7 7 7 9 9 11 12 8 7 9 9 9 9 8 8 7 7 6 4 4 5 6
2 2 2 2 1 1 1 1 2 2 3 3 3 3 3 4 5 7 8 4 5 7 7 7 7 12 14 14 10 6 8 9 8 7 6 6 5 5 5 4 3 4 5
2 2 2 1 1 1 1 1 1 2 2 3 3 3 3 3 4 7 9 8 7 6 6 7 8 14 15 14 9 8 10 7 4 4 4 4 5 5 5 6 6 5 5
2 1 1 2 2 1 0 1 1 1 1 1 2 2 3 3 4 7 9 10 11 6 6 11 13 14 12 8 8 10 7 4 3 4 4 4 4 5 5 5 6 6 6
0 1 1 1 2 2 1 0 0 0 0 1 1 2 3 4 4 5 6 7 9 8 7 9 11 10 7 7 7 6 4 3 3 4 4 4 5 5 4 4 4 5 5
1 1 2 2 2 2 2 1 0 1 2 1 1 1 2 4 5 8 7 6 7 7 8 5 5 6 7 7 7 6 5 5 4 4 4 4 5 4 4 4 3 4 4
1 2 1 1 1 1 1 2 3 2 2 1 2 2 3 5 9 10 11 11 11 10 5 4 5 6 6 7 7 7 6 6 6 5 5 4 4 5 5 4 3 4 5
2 2 2 1 1 0 1 1 2 3 4 3 3 4 5 7 8 9 11 11 8 7 4 5 5 6 6 7 6 6 6 6 6 5 5 5 5 4 4 4 4 4 4
2 2 1 1 0 0 1 1 1 2 3 3 4 5 7 8 8 9 9 7 5 5 4 5 6 6 6 6 7 6 7 7 6 6 5 5 5 4 4 4 4 4 4
1 1 0 0 1 1 1 1 1 2 2 2 3 4 7 7 6 7 7 4 4 5 6 6 6 6 6 6 6 6 6 6 7 6 6 6 5 4 4 4 4 5 4
1 1 1 2 2 2 2 2 2 2 2 2 3 4 5 5 4 5 5 4 5 5 6 6 6 6 6 6 7 6 6 6 7 6 6 6 5 4 4 4 4 4 4
0 1 2 2 2 2 2 2 1 1 2 2 3 4 5 3 4 4 5 5 5 5 6 6 6 6 6 6 6 7 8 7 6 6 6 6 6 5 4 4 3 3 3
1 1 1 2 2 2 2 2 2 2 2 3 3 4 6 4 3 4 4 5 5 5 5 5 5 5 6 6 7 7 7 7 7 7 7 6 6 5 4 4 4 4 4
1 2 2 2 2 3 3 2 2 2 2 2 3 3 4 4 4 4 4 5 5 5 5 5 6 6 6 6 5 5 6 7 7 7 7 6 6 5 4 5 6 5 5
2 3 3 3 3 3 3 2 2 2 2 2 3 3 3 4 4 4 5 5 5 6 6 6 6 9 12 9 7 6 6 7 8 6 6 5 5 4 4 5 5 5 5
2 3 3 3 3 3 3 2 2 2 2 2 2 3 3 3 4 4 5 5 6 6 8 7 7 8 12 13 12 10 11 11 8 6 4 3 5 5 5 6 6 6 6
3 4 3 3 3 3 3 2 2 1 1 2 2 2 3 3 4 4 5 5 6 6 7 7 10 11 12 11 13 13 12 11 10 9 5 4 6 6 6 5 7 6 7
Wind_Direction
69 70 70 69 68 71 73 72 74 73 72 72 73 72 67 61 58 61 58 54 56 46 37 43 38 32 39 21 358 236 217 206 248 275 272 285 291 295 303 301 294 290 286
69 72 72 71 70 71 71 70 72 74 72 72 73 71 68 62 55 55 52 48 46 37 23 21 13 4 350 322 280 260 247 229 239 277 289 292 287 294 297 299 299 297 293
68 70 69 69 69 69 70 72 73 76 74 71 73 72 68 62 56 51 48 42 34 24 11 3 348 343 329 312 295 280 272 263 241 265 287 287 287 292 299 297 298 294 294
71 71 70 68 70 70 71 73 74 77 76 72 70 68 64 60 54 45 40 34 22 11 1 350 336 320 303 303 300 295 288 286 280 280 289 294 292 293 290 299 307 306 302
76 73 71 70 72 72 72 71 70 69 72 69 68 60 51 50 46 44 33 26 14 3 355 348 333 329 337 330 321 307 298 294 296 295 295 297 298 301 300 297 301 305 299
79 77 75 73 71 69 69 67 66 62 57 56 52 46 36 33 29 35 36 20 6 357 346 339 329 336 341 340 332 322 311 301 296 290 290 290 293 293 293 294 299 302 302
83 81 78 78 74 67 70 66 60 50 44 39 28 25 13 359 11 16 21 17 355 344 335 332 328 325 331 322 319 317 309 300 290 279 277 280 285 289 294 297 298 298 294
86 84 82 82 78 69 65 57 41 31 25 7 356 353 347 345 357 1 4 3 341 332 326 318 313 312 313 321 317 311 306 301 294 282 266 274 279 286 284 284 290 291 287
88 84 83 89 84 70 56 36 17 14 1 346 343 353 350 342 355 1 4 344 332 327 321 317 313 309 309 318 316 308 307 307 305 293 283 283 284 286 286 285 292 300 307
92 87 83 89 88 74 42 15 6 11 358 356 12 16 11 356 359 5 5 342 331 327 321 317 315 312 310 314 310 301 303 308 316 320 318 317 311 307 306 282 281 294 303
98 85 73 64 72 72 32 15 12 25 31 27 25 17 17 6 356 357 356 344 327 320 318 319 316 316 315 314 309 288 283 294 304 309 314 320 325 325 324 317 287 267 286
80 66 43 14 357 58 47 13 30 45 44 29 15 4 354 345 341 338 339 335 328 312 308 309 307 310 313 314 313 307 311 311 307 317 325 327 326 326 323 319 309 291 265
75 38 358 356 358 2 340 331 24 47 48 16 3 347 330 329 328 333 335 333 332 323 305 305 310 313 317 319 322 327 332 335 329 325 324 315 308 307 310 315 319 322 317
55 328 333 336 334 344 344 334 62 355 355 344 341 330 324 326 333 339 337 333 332 332 325 319 320 320 327 326 329 339 343 331 316 310 309 304 308 319 324 326 322 333 334
320 315 326 326 319 334 350 354 276 241 223 234 269 282 310 323 320 323 325 325 324 319 320 323 341 345 351 350 346 342 341 345 343 330 320 319 322 328 328 328 322 330 339
286 301 301 304 310 329 358 9 22 24 357 261 241 260 279 284 309 325 332 333 332 334 339 343 342 346 346 344 341 338 337 343 340 330 323 320 323 327 329 333 338 341 343
242 270 283 292 297 331 29 41 8 357 6 3 340 325 315 320 332 339 341 337 340 350 3 350 345 343 341 338 336 333 327 328 328 329 328 327 324 327 332 337 342 345 347
259 272 264 269 268 84 84 71 54 15 357 349 347 354 354 349 351 354 350 351 357 4 357 348 343 339 337 336 335 334 331 333 338 338 336 333 333 331 336 341 344 344 345
265 259 236 110 104 97 95 83 61 32 11 351 349 350 354 352 360 6 7 14 357 349 347 344 341 338 335 334 334 334 333 333 336 336 338 339 338 338 341 345 347 348 355
305 252 135 114 104 98 89 78 58 38 20 6 2 353 347 1 8 360 4 0 355 348 344 342 339 339 337 336 336 337 338 340 342 342 338 338 339 342 346 350 354 358 4
3 77 109 106 110 104 86 74 62 50 29 12 2 2 8 8 0 355 355 357 355 349 345 340 339 341 342 340 339 340 340 338 340 338 335 336 338 343 348 357 3 7 11
146 131 121 118 112 100 91 81 72 60 39 26 9 4 14 20 6 359 356 354 352 350 346 340 338 341 340 337 335 333 333 334 337 336 332 333 336 343 352 7 16 20 21
154 137 118 108 106 104 94 81 76 66 49 34 20 12 10 9 4 1 358 355 353 354 352 351 346 345 344 336 330 324 322 322 317 314 316 324 338 349 0 13 20 26 27
149 138 129 120 110 106 101 93 81 68 54 40 26 17 10 5 4 3 -0 356 356 356 356 355 352 348 348 346 338 333 327 317 310 303 308 320 343 360 15 25 28 30 33
126 126 126 128 125 118 110 104 93 74 56 38 23 14 9 9 8 4 0 358 358 359 359 358 354 351 350 350 350 344 333 330 334 335 335 355 17 25 31 35 37 40 40
118 119 120 123 124 124 123 120 111 93 59 36 24 18 12 9 6 3 1 1 359 357 357 356 356 357 356 355 351 346 342 345 350 354 1 24 35 35 34 41 45 45 46